TimeCST,TemperatureF,Dew PointF,Humidity,Sea Level PressureIn,VisibilityMPH,Wind Direction,Wind SpeedMPH,Gust SpeedMPH,PrecipitationIn,Events,Conditions,WindDirDegrees,DateUTC
12:15 AM,51.3,40.6,67,30.35,10.0,North,8.1,-,N/A,,Overcast,350,2013-01-05 06:15:00
12:35 AM,51.3,40.6,67,30.35,10.0,North,10.4,-,N/A,,Overcast,350,2013-01-05 06:35:00
12:55 AM,51.1,40.6,67,30.34,10.0,NNW,9.2,-,N/A,,Overcast,340,2013-01-05 06:55:00
1:15 AM,50.9,41.2,69,30.34,10.0,NNW,9.2,-,N/A,,Overcast,340,2013-01-05 07:15:00
1:35 AM,50.5,41.9,72,30.33,10.0,NNW,11.5,-,N/A,,Overcast,340,2013-01-05 07:35:00
1:55 AM,50.5,42.1,73,30.33,10.0,NNW,8.1,-,N/A,,Overcast,340,2013-01-05 07:55:00
2:15 AM,50.0,41.9,74,30.33,10.0,North,9.2,-,N/A,,Overcast,350,2013-01-05 08:15:00
2:35 AM,50.0,41.9,74,30.33,10.0,NNW,10.4,-,N/A,,Overcast,340,2013-01-05 08:35:00
2:55 AM,49.6,42.1,75,30.33,10.0,NNW,8.1,-,N/A,,Overcast,330,2013-01-05 08:55:00
3:15 AM,49.5,42.4,77,30.33,10.0,NNW,10.4,-,N/A,,Overcast,330,2013-01-05 09:15:00
3:35 AM,49.3,42.3,77,30.33,10.0,NNW,11.5,-,N/A,,Overcast,330,2013-01-05 09:35:00
3:55 AM,49.1,42.8,79,30.34,10.0,NNW,10.4,-,N/A,,Overcast,330,2013-01-05 09:55:00
4:15 AM,49.1,43.0,79,30.33,10.0,NNW,11.5,17.3,N/A,,Overcast,330,2013-01-05 10:15:00
4:35 AM,48.9,43.2,80,30.33,10.0,NNW,11.5,-,N/A,,Overcast,340,2013-01-05 10:35:00
4:55 AM,48.9,43.0,80,30.32,10.0,NNW,10.4,-,N/A,,Overcast,330,2013-01-05 10:55:00
5:15 AM,49.1,42.8,79,30.32,10.0,NNW,10.4,-,N/A,,Overcast,340,2013-01-05 11:15:00
5:35 AM,48.2,43.7,84,30.32,10.0,NNW,10.4,-,N/A,,Overcast,340,2013-01-05 11:35:00
6:15 AM,48.0,44.4,87,30.33,10.0,NNW,6.9,-,N/A,,Overcast,340,2013-01-05 12:15:00
6:55 AM,47.8,44.6,89,30.34,10.0,NNW,5.8,-,N/A,,Overcast,330,2013-01-05 12:55:00
7:15 AM,47.5,45.0,91,30.34,4.0,NNW,6.9,-,0.01,,Overcast,340,2013-01-05 13:15:00
7:35 AM,46.9,45.1,93,30.35,4.0,NNW,6.9,-,0.01,,Overcast,330,2013-01-05 13:35:00
7:55 AM,46.6,45.0,94,30.35,4.0,NNW,8.1,-,0.01,,Overcast,340,2013-01-05 13:55:00
8:15 AM,46.6,45.0,94,30.36,4.0,NNW,6.9,-,N/A,,Overcast,330,2013-01-05 14:15:00
8:35 AM,46.6,45.0,94,30.36,5.0,NNW,9.2,-,N/A,,Overcast,340,2013-01-05 14:35:00
8:55 AM,46.9,45.1,93,30.36,5.0,NNW,6.9,-,N/A,,Overcast,340,2013-01-05 14:55:00
9:15 AM,47.3,45.5,93,30.37,3.0,NNW,9.2,-,N/A,,Overcast,340,2013-01-05 15:15:00
9:35 AM,47.5,45.7,93,30.37,4.0,NNW,5.8,-,N/A,,Overcast,340,2013-01-05 15:35:00
9:55 AM,47.3,45.7,94,30.37,5.0,NW,8.1,-,N/A,,Overcast,320,2013-01-05 15:55:00
10:15 AM,47.7,45.7,93,30.37,3.0,NNW,8.1,-,N/A,,Overcast,340,2013-01-05 16:15:00
10:35 AM,48.2,46.4,93,30.37,2.5,NW,6.9,-,N/A,,Overcast,320,2013-01-05 16:35:00
10:55 AM,48.0,46.4,94,30.36,2.5,NNW,6.9,-,N/A,,Overcast,340,2013-01-05 16:55:00
11:15 AM,48.2,46.4,93,30.36,4.0,NNW,8.1,-,N/A,,Overcast,330,2013-01-05 17:15:00
11:35 AM,49.1,46.6,91,30.35,7.0,NW,8.1,-,N/A,,Overcast,320,2013-01-05 17:35:00
12:15 PM,50.4,46.9,88,30.33,10.0,NNW,6.9,-,N/A,,Overcast,340,2013-01-05 18:15:00
12:35 PM,50.9,46.6,85,30.32,10.0,NNW,8.1,-,N/A,,Overcast,340,2013-01-05 18:35:00
12:55 PM,51.8,47.1,84,30.30,10.0,NNW,8.1,-,N/A,,Overcast,330,2013-01-05 18:55:00
1:15 PM,52.9,46.9,80,30.29,10.0,NNW,9.2,-,N/A,,Overcast,330,2013-01-05 19:15:00
1:35 PM,53.6,46.6,77,30.28,10.0,NNW,9.2,-,N/A,,Overcast,340,2013-01-05 19:35:00
2:15 PM,53.8,46.6,77,30.27,10.0,NNW,8.1,-,N/A,,Overcast,340,2013-01-05 20:15:00
2:35 PM,54.7,46.4,74,30.26,10.0,North,8.1,-,N/A,,Overcast,350,2013-01-05 20:35:00
2:55 PM,54.5,46.2,74,30.26,10.0,NNW,9.2,-,N/A,,Overcast,340,2013-01-05 20:55:00
3:15 PM,55.0,46.2,72,30.26,10.0,North,6.9,-,N/A,,Overcast,350,2013-01-05 21:15:00
3:35 PM,55.4,46.0,71,30.26,10.0,North,8.1,-,N/A,,Overcast,360,2013-01-05 21:35:00
3:55 PM,55.0,45.9,71,30.26,10.0,North,8.1,-,N/A,,Overcast,350,2013-01-05 21:55:00
4:15 PM,55.6,46.2,71,30.25,10.0,North,6.9,-,N/A,,Overcast,350,2013-01-05 22:15:00
4:35 PM,55.6,46.0,70,30.25,10.0,North,6.9,-,N/A,,Overcast,10,2013-01-05 22:35:00
4:55 PM,55.2,46.0,71,30.24,10.0,North,9.2,-,N/A,,Overcast,10,2013-01-05 22:55:00
5:15 PM,55.0,45.9,71,30.24,10.0,North,6.9,-,N/A,,Overcast,10,2013-01-05 23:15:00
5:35 PM,55.0,45.9,71,30.25,10.0,North,4.6,-,N/A,,Overcast,10,2013-01-05 23:35:00
5:55 PM,54.9,45.9,72,30.26,10.0,North,5.8,-,N/A,,Overcast,10,2013-01-05 23:55:00
6:15 PM,54.9,46.4,73,30.26,10.0,North,4.6,-,N/A,,Overcast,10,2013-01-06 00:15:00
6:35 PM,54.7,46.0,73,30.26,10.0,North,5.8,-,N/A,,Overcast,10,2013-01-06 00:35:00
7:15 PM,54.5,46.6,75,30.26,10.0,North,4.6,-,N/A,,Overcast,10,2013-01-06 01:15:00
7:35 PM,54.5,46.6,75,30.27,10.0,North,5.8,-,N/A,,Overcast,10,2013-01-06 01:35:00
7:55 PM,54.5,46.8,75,30.27,10.0,North,3.5,-,N/A,,Overcast,10,2013-01-06 01:55:00
8:15 PM,54.3,46.8,76,30.28,10.0,Calm,Calm,-,N/A,,Overcast,0,2013-01-06 02:15:00
8:35 PM,54.3,46.9,76,30.28,10.0,Calm,Calm,-,N/A,,Overcast,0,2013-01-06 02:35:00
8:55 PM,54.5,46.9,76,30.29,10.0,Calm,Calm,-,N/A,,Overcast,0,2013-01-06 02:55:00
9:15 PM,54.5,47.3,77,30.29,10.0,Calm,Calm,-,N/A,,Overcast,0,2013-01-06 03:15:00
9:35 PM,54.5,47.5,77,30.29,10.0,Calm,Calm,-,N/A,,Overcast,0,2013-01-06 03:35:00
9:55 PM,54.5,47.5,77,30.29,10.0,Calm,Calm,-,N/A,,Overcast,0,2013-01-06 03:55:00
10:15 PM,54.5,47.5,77,30.29,10.0,Calm,Calm,-,N/A,,Overcast,0,2013-01-06 04:15:00
10:35 PM,54.5,48.2,79,30.30,10.0,Calm,Calm,-,N/A,,Overcast,0,2013-01-06 04:35:00
10:55 PM,54.5,48.4,80,30.29,10.0,Calm,Calm,-,N/A,,Overcast,0,2013-01-06 04:55:00
11:15 PM,54.5,47.5,77,30.29,10.0,Calm,Calm,-,N/A,,Overcast,0,2013-01-06 05:15:00
11:35 PM,54.5,47.7,78,30.29,10.0,Calm,Calm,-,N/A,,Overcast,0,2013-01-06 05:35:00
11:55 PM,54.5,47.8,78,30.29,10.0,North,3.5,-,N/A,,Overcast,350,2013-01-06 05:55:00